Location: Brookdale
(40.8337°N, 74.1829°W)
Time: 10:23:49
(UTC+00:00)

Daily predictions for brighter satellites

Satellite Brightness Start Highest point End
(mag) Time Altitude Azimuth Time Altitude Azimuth Time Altitude Azimuth
Cosmos 1500 Rocket 4.0 22:54:11 10° SSW 22:58:37 69° W 23:03:06 10° N
STARLINK-66 3.0 22:56:23 10° SW 22:59:39 86° NW 23:02:56 10° NE
FengYun 1-2 T 4.3 22:54:39 10° SSE 23:00:17 76° ENE 23:05:55 10° N
STARLINK-55 3.1 22:57:40 10° SW 23:00:56 81° NW 23:04:13 10° NE
STARLINK-28 3.2 22:59:24 10° WSW 23:02:38 72° NW 23:05:55 10° NE
Cosmos 1707 Rocket 4.4 22:59:01 10° NNE 23:02:56 30° ENE 23:06:52 10° SE
Cosmos 1833 Rocket 3.8 22:57:51 10° NNW 23:03:19 52° WSW 23:08:44 10° S
Cosmos 1633 2.5 23:00:22 10° S 23:03:53 60° E 23:07:26 10° NNE
Cosmos 1607 4.5 22:58:20 10° NNW 23:04:14 40° NE 23:10:10 10° ESE
STARLINK-75 3.1 23:01:00 10° SW 23:04:26 89° NNW 23:07:53 10° NE
Cosmos 1459 Rocket 4.0 22:59:37 10° S 23:05:40 86° E 23:11:45 10° N
ADEOS Rocket 4.0 23:01:00 10° NNE 23:08:17 42° E 23:15:28 10° SSE
Haruka 4.5 23:06:20 10° SW 23:09:11 23° S 23:13:45 10° SE
STARLINK-22 3.1 23:06:04 10° SW 23:09:30 79° SE 23:12:57 10° NE
STARLINK-41 3.1 23:07:23 10° SW 23:10:49 88° SSE 23:14:16 10° NE
Cosmos 2061 Rocket 4.1 23:04:27 10° S 23:10:49 68° E 23:17:10 10° NNE
USA 229 DEB 3.9 23:04:57 10° S 23:11:08 49° ESE 23:17:35 10° NE
USA 229 3.9 23:05:04 10° S 23:11:14 49° ESE 23:17:41 10° NE
CSL-04 Rocket 3.9 23:11:10 10° SE 23:16:32 53° ENE 23:21:53 10° N
STARLINK-1014 4.0 23:13:39 10° SSW 23:16:44 33° SE 23:19:30 12° ENE
STARLINK-42 3.3 23:14:36 10° WSW 23:17:50 66° NW 23:21:06 10° NE
Cosmos 1725 Rocket 4.0 23:11:57 10° S 23:17:58 59° E 23:24:02 10° NNE
NOSS 3-1 (A) 4.0 23:13:58 10° S 23:18:36 30° ESE 23:23:43 10° NE
deb Kosmos-1763 4.4 23:18:31 10° N 23:22:03 43° ENE 23:25:34 10° SE
STARLINK-1023 3.1 23:19:46 10° SSW 23:22:40 46° SE 23:25:01 14° ENE
Cosmos 2346 Rocket 4.5 23:16:34 10° N 23:22:47 63° E 23:28:52 10° SSE
Cosmos 1503 Rocket 4.1 23:17:53 10° NNW 23:23:13 87° WSW 23:28:26 10° SSE
STARLINK-24 3.5 23:19:36 10° SW 23:23:37 82° SE 23:27:30 11° NE
Cosmos 2278 Rocket 4.4 23:20:02 10° WSW 23:24:31 24° NW 23:29:01 10° N
Cosmos 1782 3.4 23:20:33 10° NNW 23:24:31 61° W 23:28:27 10° S
Aureole 2 Rocket 3.5 23:23:10 10° SE 23:24:50 15° ESE 23:24:51 15° E
CSL-04 Debris 4.1 23:22:58 10° SSE 23:28:21 69° ENE 23:33:48 10° N
NOAA 11 4.1 23:22:55 10° SSE 23:28:21 75° ENE 23:33:47 10° N
STARLINK-58 3.3 23:25:16 10° WSW 23:28:48 74° NW 23:32:02 12° NE
STARLINK-1007 2.9 23:26:22 10° SW 23:29:22 56° SE 23:31:31 17° ENE
Cosmos 1802 Rocket 4.3 23:24:09 10° SSW 23:30:22 75° W 23:36:45 10° N
STARLINK-62 3.4 23:26:57 10° WSW 23:30:28 69° NW 23:33:39 12° NE
SL-4 R/B 2.4 23:26:42 10° NW 23:31:26 64° NNE 23:35:15 14° ESE
Cosmos 921 Rocket 3.4 23:27:22 10° S 23:31:38 44° E 23:35:56 10° NNE
STARLINK-81 3.5 23:27:42 10° SW 23:31:44 87° SE 23:35:13 13° NE
Cosmos 1862 3.2 23:27:47 10° S 23:31:47 77° E 23:35:46 10° N
STARLINK-34 3.5 23:28:24 10° WSW 23:31:56 67° NW 23:35:03 13° NE
STARLINK-54 3.5 23:29:33 10° SW 23:33:35 84° NW 23:37:04 13° NE
STARLINK 1040 2.5 23:32:03 10° SW 23:34:51 83° SE 23:36:39 20° NE
STARLINK-77 3.5 23:31:01 10° SW 23:35:02 88° NW 23:38:24 14° NE
Tsikada Rocket 4.0 23:28:45 10° N 23:35:05 64° E 23:41:26 10° SSE
Lacrosse 4 Rocket 2.5 23:31:11 10° SW 23:35:12 46° WNW 23:39:21 10° NNE
YAOGAN 1 2.5 23:31:22 10° SSE 23:35:41 90° SW 23:40:02 10° NNW
OE (NEXTSAT) 4.4 23:32:30 10° WSW 23:35:58 72° NNW 23:38:22 19° ENE
STARLINK-25 3.5 23:32:40 10° SW 23:36:42 86° NW 23:40:00 15° NE
Cosmos 1864 Rocket 4.4 23:30:52 10° S 23:37:04 85° E 23:43:15 10° N
STARLINK-1010 2.8 23:35:21 10° SW 23:38:27 73° SE 23:40:21 21° ENE
STARLINK-71 3.6 23:34:32 10° SW 23:38:33 75° NW 23:41:51 15° NE
STARLINK-79 3.6 23:36:00 10° SW 23:40:00 80° NW 23:43:12 16° NE
STARLINK-78 3.6 23:37:38 10° SW 23:41:39 78° NW 23:44:47 16° NE
Abrixas rocket 2.7 23:39:20 10° WNW 23:42:12 48° SW 23:44:27 15° SE
STARLINK-57 3.7 23:39:23 10° WSW 23:43:23 72° NW 23:46:28 17° NE
NOSS 2-3 (C) 4.4 23:40:34 10° S 23:44:17 30° ESE 23:46:23 21° ENE
STARLINK-1008 2.8 23:41:17 10° SW 23:44:24 84° SE 23:46:06 25° NE
STARLINK-49 3.7 23:40:57 10° WSW 23:44:57 73° NW 23:47:57 17° NE
Cosmos 1340 3.4 23:41:54 10° SSE 23:45:11 29° E 23:47:52 13° NE
Cosmos 1633 Rocket 2.9 23:41:04 10° S 23:45:21 69° E 23:49:41 10° NNE
STARLINK-1016 2.7 23:42:32 10° SW 23:45:37 87° SE 23:47:13 26° NE
STARLINK-1025 2.8 23:43:17 10° SW 23:46:25 88° SE 23:48:02 26° NE
STARLINK-27 3.7 23:42:37 10° WSW 23:46:38 71° NW 23:49:34 18° NE
STARLINK-1017 2.8 23:44:20 10° SW 23:47:26 89° NW 23:48:59 27° NE
STARLINK-74 3.7 23:44:16 10° WSW 23:48:16 69° NW 23:51:08 18° NE
Cosmos 1666 Rocket 3.6 23:44:03 10° S 23:48:31 88° W 23:53:02 10° N
Meteor 1-10 Rocket 4.3 23:43:06 10° NNW 23:48:45 81° W 23:54:17 10° S
Cosmos 1933 Rocket 4.3 23:45:30 10° SSE 23:49:18 29° E 23:53:06 10° NNE
STARLINK-39 3.8 23:45:56 10° WSW 23:49:56 67° NW 23:52:44 19° NE
HJ-1C 3.5 23:46:48 10° SSE 23:49:59 48° ENE 23:53:12 10° N
STARLINK-1048 2.8 23:47:20 10° SW 23:50:28 83° NW 23:51:56 29° NE
CZ-2D R/B 3.5 23:46:41 10° S 23:50:33 73° W 23:54:27 10° NNW
STARLINK-1028 2.8 23:47:52 10° SW 23:51:00 82° NW 23:52:26 29° NE
STARLINK-1029 2.8 23:48:03 10° SW 23:51:11 70° SE 23:52:22 34° ENE
BREEZE-M DEB (TANK) 3.6 23:42:09 10° WNW 23:51:20 71° SW 23:53:41 18° SE
STARLINK-1049 2.8 23:48:21 10° SW 23:51:30 81° NW 23:52:56 29° NE
STARLINK-31 3.8 23:47:36 10° WSW 23:51:36 64° NW 23:54:19 19° NE
STARLINK-1021 2.9 23:48:58 10° SW 23:52:05 80° NW 23:53:29 30° NE
Cosmos 1943 Rocket 2.1 23:46:46 10° SSW 23:52:20 74° ESE 23:57:53 10° NNE
STARLINK-1051 2.9 23:49:26 10° SW 23:52:34 79° NW 23:53:59 30° NE
STARLINK-1019 2.9 23:50:04 10° SW 23:53:11 78° NW 23:54:32 31° NE
STARLINK-69 4.0 23:49:30 10° WSW 23:53:27 58° NW 23:56:10 19° NE
Cosmos 1777 Rocket 4.1 23:48:30 10° N 23:53:41 53° ENE 23:58:48 10° SE
Cosmos 1346 Rocket 3.5 23:50:36 10° SSE 23:54:08 31° E 23:54:57 28° ENE
STARLINK-1012 2.9 23:51:11 10° SW 23:54:19 76° NW 23:55:38 31° NE
STARLINK-21 3.9 23:50:58 10° WSW 23:54:57 60° NW 23:57:32 20° NE
STARLINK-1026 3.0 23:53:24 10° WSW 23:56:32 72° NW 23:57:46 33° NE
